User: anonymous   Login
Location: Unspecified
(0.0000°N, 0.0000°E)
Time: 03:37:37
(UTC+00:00)
Language:

TISAT 1 - Orbit

View from above orbital plane
View from above orbital plane
View from above satellite
View from above satellite

Ground track
Ground track

The orbit data is extracted from the following two-line orbital elements,

1 36799U 10035E   18115.15870346  .00000118  00000-0  18137-4 0  9997
2 36799  98.0972 249.9962 0012856  28.8753 331.3173 14.90762746422259
Epoch (UTC): 25 April 2018 03:48:31
Eccentricity: 0.0012856
inclination: 98.0972°
perigee height: 586 km
apogee height: 604 km
right ascension of ascending node: 249.9962°
argument of perigee: 28.8753°
revolutions per day: 14.90762746
mean anomaly at epoch: 331.3173°
orbit number at epoch: 42225

The dashed part of the orbit path shows where the satellite is in the earth's shadow,  

DLR